Home   Weather   Sendai   Past weeks

Flag for Japan Past Weather in Sendai, Japan — Yesterday and Last 2 Weeks

Now
36 °F

Partly cloudy.


Feels Like: 28 °F
Forecast: 27 / 42 °F
Wind: 10 mph from Northwest

Location: Sendai Airport

Current Time: Jan 16, 2017 at 7:56:49 pm

Latest Report: Jan 16, 2017 at 7:00 pm


Visibility: N/A

Pressure: 29.83 "Hg

Humidity: 60%

Dew Point: 23 °F

Location of SendaiLocation

Past Weather in Sendai — Graph

°F

Sendai Temperature Yesterday

Maximum temperature yesterday: 32 °F (at 12:00 pm)
Minimum temperature yesterday: 21 °F (at 7:10 am)
Average temperature yesterday: 27 °F

High & Low Weather Summary for the Past Weeks

 TemperatureHumidityPressure
High50 °F (Jan 2, 12:00 pm)100% (Jan 12, 6:00 am)30.27 "Hg (Jan 12, 6:00 am)
Low21 °F (Jan 15, 7:10 am)29% (Jan 10, 10:00 am)29.53 "Hg (Jan 9, 1:00 pm)
Average37 °F67%29.85 "Hg
* Reported Jan 1 6:00 pm — Jan 16 6:00 pm, Sendai, Weather by CustomWeather, © 2017

Note: Actual official high and low records may vary slightly from our data, if they occured in-between our weather recording intervals... More about our weather records

Advertising

Sendai Weather History for the Previous 24 Hours

Scroll right to see more
 ConditionsComfort  
Time TempWeatherWind HumidityBarometerVisibility
6:00 pm
Mon, Jan 16
36 °FPassing clouds.13 mph60%29.80 "HgN/A
5:00 pm37 °FPassing clouds.14 mph56%29.77 "HgN/A
4:00 pm39 °FScattered clouds.17 mph52%29.74 "HgN/A
3:00 pm39 °FBroken clouds.16 mph52%29.71 "HgN/A
2:00 pm39 °FPartly sunny.14 mph52%29.68 "HgN/A
1:00 pm39 °FPartly sunny.14 mph48%29.68 "HgN/A
12:00 pm39 °FPartly sunny.10 mph48%29.68 "HgN/A
11:00 am36 °FScattered clouds.9 mph60%29.71 "HgN/A
10:00 am34 °FPartly sunny.6 mph65%29.74 "HgN/A
9:00 am32 °FPassing clouds.9 mph75%29.74 "HgN/A
8:00 am28 °FPassing clouds.6 mph86%29.74 "HgN/A
7:00 am27 °FPassing clouds.6 mph86%29.74 "HgN/A
6:00 am28 °FSnow flurries. Partly cloudy.7 mph86%29.74 "HgN/A
9:00 pm
Sun, Jan 15
27 °FSnow flurries. Partly cloudy.3 mph86%29.74 "HgN/A
8:00 pm23 °FPassing clouds.6 mph93%29.74 "HgN/A
7:00 pm28 °FSnow flurries. Passing clouds.7 mph86%29.74 "Hg5 mi
Weather by CustomWeather, © 2017

See weather overviewHow to use our weather pages